Retour au catalogue

METEOR 2-17 DEB

LostPO
NORAD 44697·DEBRIS·🇷🇺 Russia

Lancé Jan 30, 1988 depuis Plesetsk Cosmodrome

Loading…

Prochains Passages (prochaines 24 heures)

TLE

PériméSource: Space-Track

Époque: Aug 12, 2026, 02:29 UTC

1 44697U 88005BA  26224.10381488  .00001346  00000-0  74050-3 0  9993
2 44697  82.5217 155.7594 0018711   6.8893 353.2535 14.10931323595467

Suivez METEOR 2-17 DEB en temps réel avec AllMySat

Download on the App Store